Location: Burera
(21.3780°N, 81.9534°E)
Time: 00:33:50
(UTC+00:00)

DELTA 2 R/B(2) - Pass Details

Date: 13 August 2020
Orbit: 178 x 1377 km, 39.6° (Epoch: 22 September)

Event Time Altitude Azimuth Distance (km) Brightness Sun altitude
Exits shadow 21:49:56 - 117° (ESE) 1,857 7.8 -30.7°
Enters shadow 22:56:05 -59° 236° (WSW) 12,758 11.6 -17.1°
Maximum altitude 23:36:25 73° 324° (NW) 406 4.1 -8.4°
